San Diego Classic - Holiday Cup - 40 Mile Toss

Station: 40 Miler - T Race

Distance: 40 Miles

Release: 14-Oct-2021 07:30

Weather Release:    Arrival:

Wind at Release:     Wind at Arrival:

Temp at Release: °    Temp at Arrival: °

Lofts: 118

Birds: 410

Clocked: 410

Good Luck to Everyone!
Drops Pos Breeder Pigeon Name Color Sex Ent Arrival Speed To Win Elg PdRaceAvg Speed
1 Irish Syndicate - AZ 44418-AU21-ARPU DC H 1 08:28:12.90 1209.310 00:00:00 Yes
2 Army Loft - 2219-AU21-VITA BBSP H 1 08:28:18.70 1207.306 00:00:06 Yes
3 Craig Allred - 0067-AU21-AFPL BB H 1 08:28:54.90 1194.942 00:00:42 Yes
4 Lionello & Gluck Bros. - 1022-AU21-COM BB H 1 08:29:12.40 1189.055 00:00:59 Yes
5 Bird Love To Fly Loft - 0211-AU21-Y2K BB H 1 08:29:16.80 1187.584 00:01:04 Yes
6 Michael Kelly - CA 5139-AU21-ARC Miss Viper BBWF H 1 08:30:21.80 1166.271 00:02:09 Yes
7 Eduardo Torres - TX 26245-AU21-JEDD BB H 1 08:34:22.10 1093.705 00:06:09 Yes
8 Nanez Family Loft - WI 1375-AU21-NANE BB H 1 08:35:03.80 1082.023 00:06:51 Yes
9 Nemeth Family Loft - CA 0888-AU21-NEME BBWF H 1 08:35:05.30 1081.607 00:06:52 Yes
10 Michael Groe - CA 2142-AU21-GROE 2021X2056 BB H 1 08:35:08.60 1080.694 00:06:56 Yes
11 Michael Groe - CA 2190-AU21-GROE 9048X11503 BB H 2 08:35:09.50 1080.445 00:06:57 Yes
12 B T C Racing - CA 41549-AU21-JEDD PEN H 1 08:35:09.80 1080.362 00:06:57 Yes
13 Dudley/Moden - CA 1150-AU21-NSL BB H 1 08:35:10.30 1080.224 00:06:57 Yes
14 Alma Missiles Castro - AZ 24026-AU21-MISS BBSP H 1 08:35:11.20 1079.975 00:06:58 Yes
14 Stephen Brothers - FL 1459-AU21-GHC BB H 1 08:35:11.20 1079.975 00:06:58 Yes
16 Humberto Franco - 17455-MX21-FMC BB H 1 08:35:11.80 1079.810 00:06:59 Yes
17 Tony Chang - CA 0704-AU21-PAL BB H 1 08:35:12.70 1079.561 00:07:00 Yes
18 Michael Groe - CA 2167-AU21-GROE 10752X242 BB H 3 08:35:13.00 1079.479 00:07:00 Yes
19 Desert Rose Loft - NV 0990-AU21-DRL BB H 1 08:35:13.50 1079.341 00:07:01 Yes
19 Cloux Loft - CO 21987-AU21-FH BB H 1 08:35:13.50 1079.341 00:07:01 Yes
21 Tim Thompson - CA 0510-AU21-TOP BB H 1 08:35:13.90 1079.230 00:07:01 Yes
22 Bird Love To Fly Loft - 0206-AU21-Y2K BBSP H 2 08:35:14.50 1079.065 00:07:02 Yes
22 Alas de Oro - NV 1019-IF21-E BB H 1 08:35:14.50 1079.065 00:07:02 Yes
24 A P C Loft - TX 0151-AU21-APC SIL H 1 08:35:15.00 1078.927 00:07:02 Yes
25 Smib Loft - CA 1341-AU21-SD BB H 1 08:35:15.80 1078.707 00:07:03 Yes
26 Cano Family Loft - 1103-AU21-SD GRIZ H 1 08:35:16.10 1078.624 00:07:03 Yes
26 Dan & Greg Coury - AZ 0849-AU21-ADNE BB H 1 08:35:16.10 1078.624 00:07:03 Yes
28 Los Banditos - CA 2453-AU21-LOSB BB H 1 08:35:16.20 1078.597 00:07:03 Yes
29 Dennis Aycock - 0013-AU21-DEA BB H 1 08:35:16.60 1078.486 00:07:04 Yes
30 Tim Brandon - CA 39142-AU21-JEDD BB H 1 08:35:17.00 1078.376 00:07:04 Yes
31 Gary Riem - 0421-AU21-SPO BC H 1 08:35:17.30 1078.294 00:07:04 Yes
32 Partridge Family Loft - CA 5654-AU21-JEDD BB H 1 08:35:17.90 1078.129 00:07:05 Yes
33 Dennis Aycock - 0019-AU21-DEA BB H 2 08:35:18.20 1078.046 00:07:05 Yes
33 Alma Missiles Castro - AZ 24022-AU21-MISS BB H 2 08:35:18.20 1078.046 00:07:05 Yes
35 Win Maker Loft - CA 0045-AU21-SD F-45 BB H 1 08:35:18.70 1077.908 00:07:06 Yes
36 Lamberton & Honeywell - OK 0042-AU21-LAMB BB H 1 08:35:19.10 1077.798 00:07:06 Yes
36 Win Maker Loft - CA 0008-AU21-SD F-8 BB C 2 08:35:19.10 1077.798 00:07:06 Yes
38 Team Phoenix - AZ 0071-AU21-TPHO BC H 1 08:35:19.20 1077.771 00:07:06 Yes
39 A P C Loft - TX 0179-AU21-APC BBPD H 2 08:35:19.50 1077.688 00:07:07 Yes
39 Any Given Day Loft - TX 21085-AU21-ANYG DC H 1 08:35:19.50 1077.688 00:07:07 Yes
41 Lulus Loft - CA 1045-AU21-SD BB H 1 08:35:20.00 1077.551 00:07:07 Yes
42 Edj Loft - CA 21014-AU21-EDJL BB H 1 08:35:20.50 1077.414 00:07:08 Yes
43 Hawaiian Express - CA 0482-AU21-WWC DCSP H 1 08:35:21.00 1077.276 00:07:08 Yes
44 Sterchi & Bieche - CA 1093-AU21-AUB BB H 1 08:35:21.10 1077.249 00:07:08 Yes
45 De La O-Siino - CA 1092-AU21-COOK BB H 1 08:35:21.40 1077.166 00:07:09 Yes
45 B T C Racing - CA 41539-AU21-JEDD BB H 2 08:35:21.40 1077.166 00:07:09 Yes
47 No Limit Loft - CA 34638-AU21-JEDD BC H 1 08:35:22.10 1076.974 00:07:09 Yes
48 Gene & Eddie - CA 0318-AU21-GENE BB H 1 08:35:22.40 1076.892 00:07:09 Yes
49 Edj Loft - CA 21172-AU21-EDJ BB H 2 08:35:23.00 1076.727 00:07:10 Yes
50 Nemeth Family Loft - CA 0865-AU21-NEME BC H 2 08:35:23.10 1076.700 00:07:10 Yes
51 Flying D Loft - TX 1378-AU21-FLYD Flyd 516 / Flyd 587 BB H 1 08:35:23.30 1076.645 00:07:10 Yes
52 Jsrl Loft - 0247-AU21-JSRL BB H 1 08:35:23.40 1076.617 00:07:10 Yes
53 Rocky Mountain Racing - UT 21303-AU21-RMR BB H 1 08:35:23.80 1076.507 00:07:11 Yes
54 Barragan Racing Loft - CA 2439-IF21-E BB H 1 08:35:24.30 1076.370 00:07:11 Yes
54 Hi-Cal Connection - CA 0752-AU21-SD BBSP H 1 08:35:24.30 1076.370 00:07:11 Yes
56 Nemeth Family Loft - CA 0851-AU21-NEME BC H 3 08:35:24.40 1076.343 00:07:11 Yes
57 Gene & Eddie - CA 0315-AU21-GENE BB H 2 08:35:24.90 1076.206 00:07:12 Yes
58 Hi-Cal Connection - CA 0779-AU21-SD BB H 2 08:35:25.30 1076.096 00:07:12 Yes
59 Jsrl Loft - 0266-AU21-JSRL BB H 2 08:35:25.60 1076.014 00:07:13 Yes
60 B T C Racing - CA 41546-AU21-JEDD BB H 3 08:35:26.10 1075.877 00:07:13 Yes
60 No Limit Loft - CA 34671-AU21-JEDD BB H 2 08:35:26.10 1075.877 00:07:13 Yes
62 Jones Boys & Pj Loft - UT 1307-AU21-SLI BB H 1 08:35:26.20 1075.849 00:07:13 Yes
63 Tony Chang - CA 0708-AU21-PAL BC H 2 08:35:26.40 1075.795 00:07:13 Yes
64 Jones Boys & Pj Loft - UT 1329-AU21-SLI BB H 2 08:35:26.80 1075.685 00:07:14 Yes
65 Bob, Igor, & Joe - 6003-IF21-CC BC H 1 08:35:27.10 1075.603 00:07:14 Yes
65 Peploft - CA 4053-AU21-FOYS BLKS H 1 08:35:27.10 1075.603 00:07:14 Yes
67 Cloux Loft - CO 21981-AU21-FH BC H 2 08:35:27.90 1075.384 00:07:15 Yes
67 Partridge Family Loft - CA 5627-AU21-JEDD BBWF H 2 08:35:27.90 1075.384 00:07:15 Yes
69 Lionello & Gluck Bros. - 2231-AU21-SANT BB H 2 08:35:28.20 1075.302 00:07:15 Yes
70 Bryan Maier - PA 0595-AU21-MAIE BB H 1 08:35:28.30 1075.274 00:07:15 Yes
71 Humberto Franco - 9869-AU21-ARPU BCWF H 2 08:35:28.60 1075.192 00:07:16 Yes
72 Desert Rose Loft - NV 0960-AU21-DRL BB H 2 08:35:29.20 1075.028 00:07:16 Yes
73 No Limit Loft - CA 34634-AU21-JEDD BB H 3 08:35:29.30 1075.001 00:07:16 Yes
74 Cl & Patti Cage - 0449-AU21-DENT BB H 1 08:35:29.60 1074.919 00:07:17 Yes
75 Morningside Racing Loft - TX 1412-AU21-MSRL DC H 1 08:35:30.00 1074.809 00:07:17 Yes
76 Greg McKnight - CA 0755-AU21-JEDD BBSP H 1 08:35:30.30 1074.727 00:07:17 Yes
77 Wings By Logan - CA 0110-AU21-CORO SIL H 1 08:35:30.80 1074.590 00:07:18 Yes
78 Hawaiian Express - CA 0169-AU21-PONO BB H 2 08:35:31.20 1074.481 00:07:18 Yes
79 Desert Rose Loft - NV 0975-AU21-DRL BC H 3 08:35:31.50 1074.399 00:07:19 Yes
80 Gene & Eddie - CA 0367-AU21-VIP BC H 3 08:35:31.80 1074.317 00:07:19 Yes
81 De La O-Siino - CA 1002-AU21-COOK BB H 2 08:35:32.10 1074.235 00:07:19 Yes
82 Milestone Loft - CA 0171-AU21-SD DC H 1 08:35:32.20 1074.208 00:07:19 Yes
83 Tony Chang - CA 0703-AU21-PAL BC H 3 08:35:32.70 1074.071 00:07:20 Yes
83 Blankenship & Stork - 0031-AU21-Y2K DC H 1 08:35:32.70 1074.071 00:07:20 Yes
85 Four For More - CA 0304-AU21-VIP BBWF H 1 08:35:32.80 1074.044 00:07:20 Yes
85 Four For More - CA 0309-AU21-VIP BB H 2 08:35:32.80 1074.044 00:07:20 Yes
85 Jsrl Loft - 0243-AU21-JSRL BB H 3 08:35:32.80 1074.044 00:07:20 Yes
88 Desert Rose Loft - NV 0954-AU21-DRL BB H 4 08:35:33.10 1073.962 00:07:20 Yes
89 Fritzie’s Hutch - CA 10566-AU21-JEDD Pinay BBWF H 1 08:35:33.20 1073.935 00:07:20 Yes
90 Flying D Loft - TX 1396-AU21-FLYD Flyd 603 / Arpu 1491 DC H 2 08:35:33.80 1073.771 00:07:21 Yes
91 Tim Thompson - CA 0517-AU21-TOP BC H 2 08:35:34.30 1073.634 00:07:21 Yes
92 Tony Chang - CA 0720-AU21-PAL BB H 4 08:35:35.00 1073.443 00:07:22 Yes
93 Greg McKnight - CA 0740-AU21-JEDD BBWF H 2 08:35:35.90 1073.198 00:07:23 Yes
94 Four For More - CA 0301-AU21-VIP BC H 3 08:35:36.50 1073.034 00:07:24 Yes
95 Reana & Mark - 1300-AU21-SD BC H 1 08:35:36.80 1072.953 00:07:24 Yes
96 Dennis Aycock - 0001-AU21-DEA SLTW H 3 08:35:37.50 1072.762 00:07:25 Yes
97 Missiles Castro - AZ 24032-AU21-MISS BB H 1 08:35:37.80 1072.680 00:07:25 Yes
98 B T C Racing - CA 41545-AU21-JEDD BC H 4 08:35:38.40 1072.517 00:07:25 Yes
98 Evolution One Loft - UT 3225-AU21-OGN 601 X 916 BC H 1 08:35:38.40 1072.517 00:07:25 Yes
100 Humberto Franco - 21525-MX21-FMC BC H 3 08:35:38.70 1072.435 00:07:26 Yes

There are 410 bird records

Note: These Race Results are unofficial and subject to change until verified by the Race Committee and declared final.